SCOUT A DEB, 2353

Orbit data source: Space-Track

SCOUT A DEB, 2353 is space debris in LEO originally from a launch on Sat, 26 Mar 1966 UTC launched from the Air Force Western Test Range (AFWTR). Debris objects in space refer to the collection of defunct objects orbiting the Earth. Examples of debris include non-operational satellites, rocket bodies, and fragments generated from explosions, collisions, or faulty payload assembly.

Loading next visibility...
SCOUT A DEB details
Identifier
2353, 1966-024C
Orbit
LEO
Last TLE update1 day ago
Origin
Flag of USUSN BuWeps (US)
ManufacturerUnknown
MissionSpacecraft
Bus & MotorUnknown
MassUnknown
Launch date (UTC)
1966-03-26 (59 years ago)
Launch vehicleUnknown
Launch site
Air Force Western Test Range (AFWTR)
Object type
Payload
Rocket body
Debris
Shape & HBRUnknown
Radar Cross SectionSmall (<0.1 m²)

Expand to show TLE details & history

TLE from 1 day ago
0 SCOUT A DEB
1 02353U 66024C   25023.83230278  .00000503  00000-0  45531-3 0  9995
2 02353  89.3771  46.6444 0152214 171.9762 188.3894 13.77185755944924
Epoch: 2025-01-23T19:58Z
Definitive object data (Epoch: 2025-01-23T19:58:30.96Z)
Latitude0.00005°
Longitude-16.38877°
Altitude1,087.648 km
Speed7.253 km/s
True Right ascension03h 06m 34s
True Declination0° 00' 00"
Sunlit
Object was in daylight at TLE epoch
Visualization TLE readout
Latitude66.27195°
Longitude162.12811°
Altitude919.793 km
Speed7.431 km/s
Apparent Right ascension13h 05m 52s
Apparent Declination19° 35' 02"
Sunlit
Object is in daylight
Visualization observer readout
Local Sidereal Time23:58:48
Azimuth341.986° N
Elevation-28.477°
Doppler factor1
Orbital elements
Apogee altitude1,082.758 km
Perigee altitude859.033 km
Semi-major axis7,349.033 km
Eccentricity0.0152214
Inclination89.3771°
RAAN46.6444°
Arg. of periapsis171.9762°
True anomaly188.13962°
Mean anomaly188.3894°
Eccentric anomaly188.26405°
Mean motion3.44507 °/min
BSTAR0.00045531
Orbital period104.5 mins
Loading maneuver chart data...
Loading historical data...
Loading historical data...
Loading historical data...
Loading historical data...
Loading historical data...
Loading historical data...
Loading historical data...

SCOUT A DEB Visibility forecast

Observer location: undefined°, undefined

Span
Click to sort rows by Start time (UTC) header in descending order
Start Az.
Max El. time (UTC)
Max El. Az.
Max El.
End time (UTC)
End Az.
4 mins2025-01-25 00:03:16.109Z91.826° ESE2025-01-25 00:05:16.109Z73.001° E12.892°2025-01-25 00:07:16.109Z53.538° ENE
11 mins2025-01-25 01:44:16.109Z175.832° S2025-01-25 01:49:16.109Z14.508° NNE44.855°2025-01-25 01:55:16.109Z359.135° N
4 mins2025-01-25 03:32:16.109Z265.103° W2025-01-25 03:34:16.109Z284.464° WNW13.243°2025-01-25 03:36:16.109Z303.966° NW
7 mins2025-01-25 12:42:16.109Z35.635° NE2025-01-25 12:45:16.109Z77.104° E24.789°2025-01-25 12:49:16.109Z133.207° SE
8 mins2025-01-25 14:26:16.109Z336.54° NNW2025-01-25 14:30:16.109Z275.407° WNW29.924°2025-01-25 14:34:16.109Z220.328° SW
|